GFSGL_700_rhum_132.txt.gz
RH
36 18 19 27 30 40 47 50 66 77 82 87 89 89 93 84 84 77 68 66 53 48 50 45 46 48 50 47 44 38 34 28 16 8 13 28 49 57 55 62 100 69 90
41 22 29 35 37 54 68 78 89 98 100 98 86 80 81 82 83 86 90 81 85 86 83 96 100 100 100 97 90 78 66 51 34 20 28 52 58 70 73 75 74 96 72
39 28 40 46 51 65 76 84 91 96 98 97 96 84 69 58 60 65 60 76 78 78 81 91 99 100 100 100 100 100 100 100 93 80 69 90 83 64 76 88 86 87 99
34 40 49 57 66 73 78 86 93 95 93 92 63 30 18 11 11 11 11 12 16 36 40 43 66 72 82 88 97 100 100 100 100 100 98 99 100 98 98 85 75 88 96
36 47 58 70 75 78 84 91 86 65 25 12 12 12 11 10 10 9 8 8 8 8 8 8 8 10 10 26 62 74 92 98 100 99 97 100 99 99 96 99 89 100 97
46 57 70 75 79 85 88 82 49 44 20 13 12 10 8 7 6 6 6 5 5 4 4 4 4 4 4 6 7 7 26 55 74 84 91 92 97 100 100 100 99 81 66
55 69 75 79 84 63 65 24 16 15 14 11 10 9 8 8 7 7 6 6 5 5 4 4 4 3 3 3 3 3 4 5 8 28 42 52 77 83 85 93 96 97 99
67 75 79 71 68 34 24 22 16 13 11 10 9 9 9 8 7 7 6 5 5 4 4 3 3 3 2 2 2 2 2 2 2 3 3 4 17 15 51 67 76 80 82
74 77 50 13 12 20 17 16 13 12 11 10 9 9 9 8 8 7 6 6 5 5 4 4 4 3 3 3 2 2 2 2 2 2 2 2 2 2 3 7 14 38 66
80 60 21 12 17 18 15 13 12 12 11 11 11 10 10 9 9 8 8 7 7 6 6 6 5 5 4 4 4 4 3 3 3 3 3 2 2 2 2 2 2 2 4
72 24 12 18 18 16 23 14 14 13 13 12 12 11 11 10 10 10 9 8 8 8 7 7 6 6 5 5 4 4 4 4 4 3 3 3 3 2 2 2 2 2 2
23 13 17 19 17 17 18 17 16 15 14 14 13 12 12 12 12 12 11 10 9 8 8 7 7 6 6 5 5 5 5 4 4 4 4 3 3 3 3 2 2 2 2
18 16 20 18 19 21 22 22 20 18 16 14 13 13 13 13 13 12 10 10 10 9 8 8 7 6 6 5 5 5 5 4 4 4 4 3 3 3 3 3 3 2 2
15 20 19 19 23 26 27 27 25 21 18 16 15 16 15 15 14 12 12 11 10 8 8 7 6 6 6 6 5 5 4 4 4 4 3 3 3 3 3 3 3 3 2
20 20 19 23 27 30 31 30 27 23 20 18 18 17 16 16 16 15 13 12 10 9 8 7 7 6 6 5 5 5 4 4 4 3 3 3 3 3 3 3 3 3 3
21 19 21 24 29 33 34 33 30 26 22 21 20 19 19 18 16 13 12 10 8 8 7 7 6 6 5 5 4 4 4 4 4 4 4 4 4 4 4 4 4 4 4
20 20 22 24 30 34 35 35 32 28 26 24 22 21 18 15 12 12 10 9 8 7 7 6 6 5 5 5 5 6 6 6 6 6 5 5 5 5 4 4 4 4 4
19 20 20 24 33 38 38 37 35 33 31 26 23 20 16 13 11 10 8 8 7 7 6 6 6 7 7 8 8 8 8 7 7 6 6 6 5 5 5 4 4 4 4
18 18 18 26 35 39 41 39 37 34 32 29 24 21 17 14 12 10 8 8 7 7 8 8 9 9 10 10 10 9 9 8 8 7 6 6 6 6 6 7 7 7 6
17 16 19 26 35 42 43 42 40 37 33 29 23 17 15 13 9 8 8 8 8 9 10 11 11 12 12 12 11 11 10 9 8 8 7 8 8 9 11 12 11 12 11
16 16 19 26 35 43 45 44 43 38 33 28 20 16 12 10 9 8 8 9 10 11 12 14 14 14 14 14 13 12 11 10 10 10 10 11 12 13 14 16 17 16 16
16 16 19 24 34 44 48 47 44 38 31 25 19 14 11 10 9 9 10 11 13 14 16 17 17 17 17 16 15 14 12 11 12 13 14 14 15 17 18 19 19 18 18
16 17 19 23 33 45 51 49 45 38 30 21 17 13 11 10 10 11 12 14 16 18 19 20 20 20 20 19 17 15 14 14 15 16 16 17 19 20 22 23 24 24 22
18 19 19 22 32 47 53 51 45 37 28 20 15 12 11 11 12 13 15 16 19 20 21 22 22 23 23 22 20 18 18 19 20 20 21 23 24 25 27 29 32 34 34
20 20 20 21 32 48 55 52 45 34 24 17 14 12 12 13 14 16 17 19 21 22 23 24 25 26 26 25 23 22 22 24 24 25 26 28 29 32 36 38 41 43 44
21 21 20 22 36 50 58 52 42 30 20 16 14 13 14 15 16 17 19 20 22 24 25 27 28 29 29 28 27 26 26 27 28 30 31 32 35 39 42 46 50 54 55

GFSGL_700_rhum_135.txt.gz
RH
53 49 42 38 20 20 24 32 43 52 60 74 93 91 83 86 90 96 96 98 96 91 82 73 70 59 45 48 49 51 44 37 27 13 13 12 13 12 31 50 52 54 97
60 58 47 36 22 28 34 45 56 66 77 86 98 92 85 76 75 87 92 96 87 88 96 96 96 91 95 90 92 100 93 86 71 41 29 28 18 16 20 50 64 50 57
70 64 51 32 27 36 46 58 68 75 84 90 95 95 92 59 25 26 22 19 28 53 57 64 78 77 84 81 87 91 98 98 99 100 96 73 48 26 22 39 66 74 64
78 66 49 30 40 51 62 69 78 87 84 52 82 24 12 11 11 11 10 10 9 8 8 8 8 13 10 29 56 56 82 91 98 98 99 99 98 88 61 31 58 64 80
83 60 40 40 53 63 70 76 84 64 60 34 14 13 11 10 8 7 6 5 5 4 4 4 4 4 4 4 6 6 10 33 51 84 90 98 99 97 98 99 80 51 77
84 55 41 54 62 71 75 75 50 43 40 26 13 10 8 7 6 6 6 5 5 4 4 4 4 4 4 4 4 3 3 3 4 5 20 24 41 72 86 91 92 85 94
72 48 54 65 71 75 50 57 24 18 15 13 10 9 8 8 7 7 6 5 4 4 3 3 3 3 3 3 2 2 2 2 2 2 2 2 3 19 19 30 68 77 82
60 57 68 73 58 60 36 23 18 15 13 11 10 9 8 8 7 7 6 6 5 5 4 4 4 4 3 3 3 3 3 3 3 3 2 2 2 2 2 2 2 4 16
60 68 73 56 13 19 19 17 15 13 12 11 10 10 9 9 9 9 8 8 7 7 6 6 5 5 4 4 4 4 4 4 3 3 3 3 3 3 3 2 2 2 2
67 76 68 29 13 17 17 22 16 13 12 12 11 10 10 11 11 11 10 9 8 8 8 7 7 6 5 5 5 4 4 4 4 4 4 4 3 3 3 3 2 2 2
76 80 58 11 16 19 16 16 16 15 14 13 13 13 13 14 14 13 12 11 10 9 9 8 8 7 7 6 6 5 5 5 5 4 4 4 4 4 3 3 3 3 2
80 70 16 15 20 17 18 19 19 18 17 15 14 14 15 15 15 14 12 12 11 10 9 9 9 8 7 7 6 6 6 5 5 5 4 4 4 3 3 3 3 3 2
78 22 14 19 18 19 22 24 24 23 19 17 15 16 16 16 16 15 14 12 12 10 10 9 8 8 7 7 6 6 5 5 5 4 4 4 4 3 3 3 3 3 3
68 24 18 19 20 23 27 29 28 26 22 19 17 18 18 17 17 15 14 13 12 11 10 9 8 7 6 6 6 5 5 5 4 4 4 4 3 3 3 3 3 3 3
60 16 20 19 24 28 30 32 31 29 25 22 22 22 21 20 18 16 15 15 12 11 10 8 7 7 6 6 6 5 5 4 4 4 3 3 3 3 3 3 3 3 3
16 21 20 21 25 29 32 34 33 31 28 27 27 26 24 21 19 18 18 15 13 11 10 8 7 6 6 6 5 4 4 4 4 3 3 3 3 3 4 4 4 4 4
18 21 20 24 27 32 35 36 36 33 31 30 29 26 23 23 22 20 16 13 12 10 8 7 6 6 6 5 6 6 6 5 6 6 6 6 6 6 6 6 5 5 5
22 20 21 21 23 32 38 40 40 38 35 34 32 29 25 22 19 17 14 12 9 8 7 7 6 6 7 7 8 8 8 9 9 9 8 8 8 7 6 6 6 5 5
21 20 21 21 27 35 38 42 43 42 40 37 35 32 27 22 18 15 12 10 8 8 7 8 8 9 10 11 10 11 11 11 11 10 10 9 8 7 7 7 7 7 7
20 20 19 20 28 37 43 44 45 45 43 41 38 33 26 22 16 13 11 9 8 8 9 10 11 12 13 13 14 14 14 13 12 12 11 10 9 8 8 8 9 9 9
19 19 18 20 27 35 41 46 47 47 46 41 38 31 25 19 14 11 9 9 9 10 11 12 14 16 16 17 17 17 16 15 15 13 12 11 11 11 11 11 11 12 12
19 18 18 20 24 30 39 46 50 50 49 45 36 28 20 16 12 10 9 9 10 12 13 16 18 18 19 20 20 20 19 18 17 15 14 13 13 14 14 15 15 16 16
18 17 17 18 21 26 36 46 52 54 51 46 35 26 20 14 12 10 10 11 12 14 17 20 22 22 23 24 23 23 22 21 20 17 15 16 17 18 18 18 19 20 22
18 17 18 18 20 23 32 44 53 54 51 44 33 24 18 14 12 12 12 13 14 17 21 24 25 26 27 27 28 27 26 24 23 20 19 20 22 22 23 23 25 27 29
18 18 19 19 20 22 32 46 54 57 52 43 31 22 16 13 12 14 14 16 17 20 24 26 28 29 30 30 31 31 30 29 27 25 25 26 27 27 28 29 30 33 35
20 20 20 20 20 21 40 55 55 60 54 42 29 21 16 14 14 16 17 18 20 23 26 29 31 33 34 35 36 36 35 34 32 31 31 32 32 33 34 35 38 39 41

GFSGL_700_rhum_138.txt.gz
RH
55 54 57 61 58 50 40 26 20 31 38 48 54 74 91 80 72 73 77 88 93 94 96 97 98 98 97 94 85 77 58 49 47 39 25 19 11 15 20 21 19 22 17
63 64 65 69 62 50 33 24 26 49 54 65 67 81 92 94 80 48 41 42 46 60 91 96 97 99 100 98 98 98 94 100 99 98 74 59 44 35 28 30 27 40 33
74 74 76 75 62 44 31 34 39 60 62 74 76 83 93 84 44 14 12 10 10 10 10 12 20 33 42 68 79 74 80 90 84 85 89 85 79 86 81 56 36 47 73
81 82 85 75 55 38 36 45 53 66 73 74 43 36 22 12 12 10 9 7 6 5 4 4 4 5 6 8 11 16 11 34 44 54 72 79 84 85 83 94 97 67 75
83 94 92 71 48 41 50 55 66 72 68 66 46 18 12 10 8 6 6 5 5 5 4 4 4 4 3 3 3 3 4 4 6 6 15 38 32 50 76 86 89 82 76
96 100 89 58 44 49 60 65 67 48 34 28 31 14 10 8 8 6 6 6 5 5 4 4 3 3 3 2 2 2 2 2 2 2 2 3 3 4 20 32 30 64 87
100 97 85 60 52 60 62 50 46 28 16 14 12 11 9 8 8 7 6 6 5 5 4 4 4 4 4 3 3 3 3 3 3 3 3 2 2 2 2 2 2 2 4
98 96 56 53 64 56 52 39 21 17 14 12 12 11 10 9 8 8 8 8 8 7 7 6 6 5 5 4 4 4 4 4 4 3 3 3 3 3 2 2 2 2 2
94 70 57 64 64 22 22 20 17 14 13 12 12 11 11 11 11 11 12 11 10 9 9 8 8 7 6 5 5 5 5 4 4 4 4 4 3 3 3 3 3 3 3
90 68 64 70 40 18 16 18 26 16 14 13 13 13 12 12 13 14 13 12 12 11 10 9 8 8 7 6 6 6 6 5 5 5 5 4 4 4 4 4 4 4 3
85 68 68 74 27 13 18 17 16 16 16 15 15 14 13 14 16 15 14 14 13 11 10 10 9 8 8 8 7 7 7 6 6 6 5 5 5 5 4 4 4 4 4
77 68 78 66 14 17 19 18 20 20 20 19 17 15 16 18 18 17 16 15 14 13 11 11 10 10 9 9 8 8 8 7 7 6 6 5 5 4 4 4 4 4 4
71 74 78 31 16 19 18 22 25 26 24 21 19 18 20 20 20 18 17 15 14 13 12 11 10 10 10 9 8 8 7 7 6 6 5 5 4 4 4 3 3 3 3
73 82 50 14 19 19 22 27 29 28 26 23 21 22 22 22 21 20 18 16 15 14 14 13 12 12 10 9 8 7 6 6 5 4 4 3 3 3 3 2 2 2 2
82 79 33 18 19 22 27 30 31 30 28 25 24 23 22 22 21 19 19 18 16 16 14 12 12 9 8 7 7 6 5 4 4 3 3 3 3 3 2 2 2 2 2
90 87 36 20 20 26 30 33 33 32 30 27 27 26 25 24 22 21 20 18 16 14 13 11 9 7 7 6 6 5 4 4 3 3 3 3 3 3 3 3 4 4 4
96 79 20 20 24 28 32 35 36 35 35 33 32 31 28 26 24 21 20 18 17 14 12 9 8 7 7 6 5 4 4 4 4 5 5 5 5 5 5 5 5 5 5
95 18 21 22 26 29 35 38 39 39 40 39 37 33 29 27 26 24 21 19 14 11 10 8 8 7 6 6 7 7 7 8 8 8 7 7 7 7 7 7 6 6 6
33 20 21 23 26 31 38 41 42 42 43 42 40 35 32 29 27 23 18 15 12 9 9 8 8 8 8 9 9 9 10 10 10 10 10 10 10 10 9 9 8 8 7
44 22 21 22 24 30 38 41 43 44 44 45 44 39 36 33 27 23 20 14 10 9 9 9 9 10 12 13 12 13 14 14 14 14 14 13 13 12 11 10 10 9 9
21 21 21 21 22 28 35 39 44 46 47 47 47 43 38 32 26 21 16 12 10 9 10 11 12 14 16 16 16 16 17 17 18 18 18 17 17 15 14 13 13 12 12
22 21 20 20 22 27 32 37 43 47 50 51 50 45 38 31 24 18 14 11 11 11 12 14 15 18 20 20 20 20 21 22 23 23 22 22 20 18 17 16 16 17 16
25 20 19 18 19 23 26 32 42 50 53 52 49 43 35 27 22 16 13 12 12 13 14 16 18 22 24 24 24 25 26 27 27 27 27 25 24 22 21 21 21 21 21
21 19 18 18 18 20 23 29 41 49 52 54 50 42 35 27 20 15 14 13 14 15 17 19 22 26 28 28 29 30 31 31 32 32 31 30 28 27 26 26 26 26 25
36 20 18 18 18 19 21 27 40 50 57 58 54 49 37 25 18 16 15 15 16 17 19 22 26 29 31 33 35 35 36 36 36 38 37 36 33 32 32 32 31 31 32
20 19 18 18 19 19 20 29 66 87 69 60 61 58 38 24 19 17 17 17 18 20 22 25 28 32 35 37 40 41 42 43 44 44 43 41 39 39 39 37 36 37 37

GFSGL_700_rhum_141.txt.gz
RH
38 49 51 54 61 64 64 57 49 33 25 30 37 44 51 57 70 83 77 53 26 28 47 53 84 93 95 96 98 100 100 100 99 94 66 44 34 29 27 31 29 26 19
34 43 48 62 69 74 67 59 46 30 34 44 49 56 59 66 80 88 71 26 13 11 10 10 10 52 86 95 96 97 98 100 100 100 100 100 99 100 80 53 46 46 34
36 42 58 79 83 79 71 61 36 37 49 56 58 63 61 63 21 12 11 10 8 7 5 5 4 4 6 9 26 76 74 93 94 98 99 100 100 100 100 100 96 73 56
48 60 77 86 87 81 72 47 38 47 55 59 66 68 46 17 12 10 8 7 6 5 5 5 4 4 3 3 3 5 6 8 16 17 45 64 58 71 93 100 100 99 96
59 67 79 88 86 84 60 42 44 54 60 61 51 41 35 12 10 9 7 7 6 6 5 4 4 3 3 3 3 3 3 3 3 3 3 3 3 5 20 53 72 92 100
60 76 90 83 86 76 63 41 51 57 55 34 22 15 12 10 9 8 7 7 6 5 5 5 4 4 4 3 3 3 3 3 3 3 2 2 2 2 2 3 4 5 40
64 88 82 96 92 78 50 54 51 47 30 18 14 13 12 10 9 8 8 8 8 8 8 7 7 6 5 5 4 4 4 4 4 4 4 3 3 3 3 3 2 2 2
75 77 88 98 87 57 60 47 39 23 19 14 13 13 11 11 10 10 11 11 11 10 10 9 8 8 7 6 6 6 5 5 5 4 4 4 4 4 4 3 3 3 3
92 85 95 96 63 65 61 25 28 17 24 14 14 13 12 12 12 13 14 14 13 12 12 10 9 8 8 7 7 6 6 6 6 5 5 4 4 4 4 4 4 4 4
96 89 95 78 67 72 30 14 17 22 24 16 15 15 14 14 14 16 16 15 15 14 13 12 11 10 9 8 7 7 7 7 7 6 6 6 5 5 5 5 5 4 5
96 94 95 78 73 72 24 16 18 16 18 18 17 16 15 16 18 18 17 17 16 15 14 13 12 11 10 9 9 9 8 8 8 7 7 6 6 6 5 5 5 5 5
96 96 92 75 76 74 16 20 19 19 22 22 20 18 17 19 20 19 18 18 17 16 15 14 12 11 12 11 11 10 10 9 8 8 7 6 5 5 5 5 5 5 5
97 100 86 77 82 46 16 18 19 24 26 25 22 20 20 21 21 20 19 18 18 17 15 14 13 13 13 12 11 10 9 8 7 6 5 5 4 4 4 4 3 3 3
98 96 84 86 73 18 19 19 24 28 28 27 24 22 24 24 23 22 20 19 18 17 16 16 14 14 14 13 11 10 8 7 6 5 5 4 4 3 3 2 2 2 2
98 98 87 87 31 17 19 23 28 30 30 28 25 26 27 27 25 22 21 21 20 20 19 18 17 18 15 12 10 9 7 6 5 4 4 3 3 3 3 3 3 3 3
97 96 94 63 22 19 21 28 31 32 32 30 29 29 29 29 26 24 23 23 22 22 20 18 16 14 11 9 8 7 6 5 4 4 3 3 3 3 3 4 4 4 4
97 96 94 89 51 20 25 30 33 34 34 33 32 32 30 32 30 28 28 26 25 22 18 15 14 11 9 8 8 7 5 4 4 4 4 4 4 4 5 5 5 5 5
96 96 95 80 19 22 28 32 35 37 38 38 38 37 35 34 32 30 29 27 23 19 16 15 12 9 8 8 7 6 6 6 6 6 6 6 6 6 6 7 6 6 6
96 96 94 25 21 24 29 35 38 40 41 42 43 41 38 37 35 32 30 27 22 19 17 13 10 9 8 8 8 8 8 8 8 9 9 9 9 9 9 9 10 10 10
96 95 52 20 22 26 31 36 39 41 43 43 44 44 42 39 37 34 32 28 22 17 13 11 9 9 9 9 10 12 13 13 13 13 12 12 12 13 13 14 14 14 14
96 93 37 25 22 26 31 37 40 42 44 44 45 46 46 42 40 37 31 24 19 15 12 10 10 10 11 13 15 17 17 16 16 16 16 17 18 20 20 20 20 20 19
96 94 35 21 22 24 30 36 38 42 44 46 49 49 48 46 43 37 29 22 16 14 12 12 12 13 14 16 20 23 22 22 22 22 23 24 25 25 26 26 26 25 23
74 23 20 20 21 21 25 29 33 39 46 50 50 50 50 49 44 37 28 20 17 14 13 14 14 16 18 21 25 27 27 27 28 29 30 30 30 31 32 32 31 29 28
24 24 30 25 19 20 22 25 29 36 44 48 52 56 57 52 50 41 29 21 17 16 15 16 18 19 21 25 28 31 31 31 32 35 36 36 37 38 39 38 37 34 32
97 54 20 23 34 18 19 21 25 34 44 57 75 79 62 61 63 48 30 21 18 18 18 19 21 22 25 28 32 35 35 35 38 40 42 42 44 46 46 45 42 41 39
34 59 92 68 24 18 18 20 22 34 67 93 91 76 79 87 77 42 27 21 20 20 20 22 24 25 28 32 36 39 39 39 42 45 48 49 52 54 53 52 50 48 46

GFSGL_700_rhum_144.txt.gz
RH
41 38 35 35 40 42 51 57 55 51 52 48 32 26 30 38 42 53 72 74 56 30 14 10 11 10 11 62 81 96 97 96 96 98 99 98 96 93 93 90 84 63 52
38 39 33 34 40 49 62 59 56 53 54 43 30 38 43 52 58 49 20 12 10 9 8 7 7 21 5 30 35 41 87 96 96 97 97 99 100 100 100 100 89 68 51
49 47 39 44 55 68 64 59 63 58 50 32 37 54 61 62 36 21 11 9 7 6 6 5 5 5 13 19 27 3 40 9 31 80 93 97 99 100 100 100 100 100 89
78 86 61 50 70 74 73 68 65 64 40 43 56 56 48 50 21 13 10 8 7 6 5 5 4 4 3 3 8 3 3 3 3 4 4 8 24 33 68 94 100 100 100
94 94 83 70 73 72 61 72 73 50 48 55 51 40 18 22 18 12 9 8 7 7 6 5 5 4 4 4 3 3 3 3 3 2 2 2 2 2 4 25 36 89 99
91 95 85 81 77 73 62 76 65 49 51 52 26 18 14 17 14 11 9 9 10 10 9 8 8 7 6 5 4 4 4 4 4 4 4 3 3 3 3 2 2 3 17
100 96 72 68 73 59 79 81 49 51 44 36 21 14 13 13 12 11 11 12 12 12 11 10 9 8 7 7 6 6 5 5 5 5 5 4 4 4 4 4 3 3 3
97 90 59 68 65 77 88 62 56 46 28 23 16 14 14 14 13 12 13 14 14 13 12 11 10 9 9 8 7 7 7 6 6 6 6 5 5 5 5 5 5 4 4
90 94 78 82 78 88 83 62 59 36 22 31 18 15 15 14 14 14 16 16 15 15 14 12 11 10 9 8 8 8 8 8 8 7 7 6 6 6 6 5 5 5 5
100 97 94 89 84 92 68 67 43 16 17 26 16 16 16 15 15 16 17 17 17 16 15 14 12 10 10 9 9 9 9 9 9 8 8 7 7 7 6 6 6 6 6
97 96 96 92 96 82 74 69 34 16 18 17 19 20 19 16 17 19 19 18 18 17 16 15 14 12 11 11 10 10 10 10 10 9 9 8 7 7 6 6 6 6 6
97 94 90 91 98 90 75 71 25 19 18 21 22 23 20 18 19 21 20 20 19 18 17 16 16 14 14 14 13 13 12 11 10 8 7 6 5 5 5 6 6 6 6
93 90 88 94 98 86 80 68 17 19 20 24 25 24 20 20 22 23 22 21 20 20 19 18 17 16 16 15 14 12 11 9 8 7 6 5 5 5 6 5 5 4 4
92 94 96 100 94 86 83 30 18 19 24 27 27 24 22 24 25 25 24 23 23 22 21 20 19 18 16 16 15 14 11 9 8 7 6 6 5 4 4 4 3 3 3
95 96 96 98 96 90 63 19 19 22 27 29 28 25 25 26 28 28 27 26 25 23 23 22 21 21 21 18 15 12 10 9 8 7 6 5 5 4 4 3 3 3 3
96 97 96 96 96 84 29 18 20 26 29 30 29 28 28 29 29 29 30 29 28 26 25 25 25 22 19 15 14 12 11 10 8 6 6 5 4 4 4 4 4 4 4
98 97 96 96 95 44 26 28 23 28 31 32 31 32 33 34 34 34 32 31 30 30 28 28 25 22 19 16 14 11 9 8 6 5 5 5 4 5 5 5 6 6 6
97 96 97 97 71 60 85 28 26 30 33 34 35 36 38 37 37 35 34 33 33 34 33 30 27 21 17 14 12 10 8 6 6 6 6 6 6 6 7 7 7 7 8
96 97 96 96 96 94 68 48 29 33 36 37 39 40 41 41 40 39 38 37 38 38 33 28 24 20 16 12 9 8 7 8 8 8 8 8 9 9 9 9 10 11 11
98 97 97 97 96 93 78 46 30 35 37 39 40 42 43 45 46 44 43 42 40 37 33 30 25 18 12 10 9 8 9 9 11 12 12 11 11 11 12 12 13 14 15
96 96 97 96 95 43 91 34 32 36 38 39 42 44 46 47 47 46 46 45 44 41 34 26 18 14 12 11 10 10 11 12 15 16 16 14 14 16 16 17 18 20 21
96 96 96 96 76 89 36 29 34 37 38 40 43 45 48 49 50 50 51 50 46 40 32 24 18 15 13 12 13 13 14 17 21 22 20 19 19 20 22 22 24 26 28
97 97 97 95 88 46 41 49 32 35 38 40 44 47 48 50 55 60 58 59 53 44 27 21 17 15 14 15 16 17 19 22 25 27 26 23 24 26 28 28 29 32 36
98 98 96 49 21 21 23 26 29 30 34 39 43 46 51 64 75 70 72 76 61 42 24 19 17 17 17 18 19 21 23 26 30 32 30 29 30 32 34 37 39 43 46
97 96 74 29 32 31 33 53 28 26 28 34 42 50 78 88 86 87 89 86 65 43 28 21 19 19 20 22 24 25 27 30 34 36 35 33 33 36 39 44 48 53 56
97 97 88 91 54 48 92 55 50 32 25 34 45 80 94 94 92 93 94 87 65 46 30 23 22 22 24 25 27 28 30 34 40 40 36 34 36 41 47 54 60 63 64

GFSGL_700_rhum_147.txt.gz
RH
33 33 36 42 41 38 35 32 37 39 37 30 29 37 39 26 21 27 35 44 34 16 10 9 15 12 21 22 39 61 16 72 75 92 90 95 96 97 97 97 92 80 68
37 39 41 39 37 36 34 39 47 45 37 31 42 42 31 24 29 38 42 22 11 9 8 7 7 7 14 13 29 59 8 57 27 44 93 96 96 96 97 98 98 94 86
43 45 39 41 39 39 43 47 52 42 34 40 43 37 28 30 41 40 15 11 10 8 7 6 5 4 4 4 4 46 10 8 3 13 9 42 90 96 97 96 95 97 100
68 49 50 57 52 49 49 44 51 45 47 51 42 33 31 40 40 24 14 10 9 8 7 7 6 5 4 4 3 4 4 3 3 3 3 3 3 4 20 84 98 98 98
68 87 72 81 84 75 60 67 60 54 51 50 38 34 41 28 25 21 12 10 10 10 10 10 8 7 6 5 4 4 4 4 4 3 3 3 3 3 3 5 13 31 85
74 69 76 89 94 85 84 79 64 68 58 45 38 40 35 20 22 13 11 11 12 12 12 11 10 8 7 6 5 5 5 5 4 4 4 4 4 4 3 3 3 3 4
98 98 98 98 98 97 94 72 78 73 54 42 38 39 25 15 13 13 12 13 14 14 13 12 11 9 8 7 7 6 6 6 6 6 5 5 5 4 4 4 4 3 3
96 99 98 96 94 88 84 83 85 67 50 44 28 26 16 15 14 14 14 15 15 15 14 13 12 10 9 8 8 8 7 7 7 7 7 6 6 6 5 5 5 5 5
98 97 96 92 94 91 86 92 84 61 52 39 20 30 18 15 15 14 15 17 16 16 15 14 12 11 10 10 9 9 9 9 9 8 8 7 7 7 6 6 6 5 6
96 95 98 95 99 88 87 94 72 63 41 20 21 35 20 17 16 15 17 18 18 17 16 15 14 12 12 12 12 12 11 11 10 10 9 9 8 8 7 7 6 6 6
96 99 96 97 96 94 95 83 74 62 27 17 18 18 18 18 17 17 19 19 19 18 17 16 16 15 15 15 14 14 13 13 12 11 11 10 9 8 7 7 7 7 7
98 97 99 92 89 96 96 86 77 63 23 17 20 20 20 19 18 19 20 21 20 20 20 19 18 18 18 18 17 16 16 15 15 13 12 10 9 8 8 8 8 8 8
96 98 96 88 94 94 94 88 78 66 23 19 20 23 22 20 19 21 23 22 22 22 23 22 22 22 22 22 21 20 18 17 15 13 11 10 9 9 9 8 7 7 7
100 100 92 87 95 97 94 90 83 51 19 19 22 25 24 21 21 24 25 24 24 26 26 26 26 26 25 23 22 22 19 17 15 13 12 12 11 9 8 7 6 5 5
96 96 91 94 99 99 93 91 80 43 19 20 25 26 24 22 23 26 27 27 28 29 28 28 28 28 28 28 26 23 20 18 16 14 12 10 8 8 6 5 5 5 5
95 96 86 94 98 97 95 94 66 20 19 23 27 28 24 24 25 28 28 30 31 31 31 31 31 31 31 29 26 23 20 16 13 11 10 9 7 6 6 5 5 5 5
100 90 89 97 98 96 97 95 39 20 21 26 28 28 26 26 28 31 31 32 33 33 32 34 33 33 31 27 24 20 17 15 12 10 10 8 7 6 5 5 6 6 8
100 98 95 96 96 96 96 92 62 29 29 27 30 31 30 31 32 34 35 36 35 36 36 37 37 34 31 28 25 21 17 13 11 9 9 8 7 6 6 6 7 8 9
97 96 95 95 95 96 95 95 95 41 48 40 31 32 34 36 37 37 38 38 39 39 40 41 39 37 34 29 22 17 14 13 11 10 9 8 8 8 7 7 8 9 11
94 94 95 95 96 96 97 96 86 88 52 29 31 34 38 41 41 40 41 42 42 44 44 45 44 40 33 26 20 16 14 12 10 10 10 10 10 10 10 10 10 12 14
95 95 96 96 96 96 96 96 94 77 29 31 33 36 39 42 44 45 44 46 47 48 49 50 46 39 31 25 20 16 14 13 12 11 11 12 13 15 14 14 14 15 18
95 96 96 96 97 97 96 88 97 60 29 32 35 38 40 43 45 46 47 49 52 54 56 56 49 39 31 24 20 17 15 14 14 14 14 15 18 20 19 18 18 20 23
95 96 97 98 98 97 83 96 68 30 31 34 36 42 42 44 46 47 53 63 62 65 74 66 51 38 28 22 20 18 17 17 17 18 19 22 25 25 23 22 22 25 30
96 97 97 97 97 97 97 70 64 93 44 34 36 38 41 44 47 59 83 80 85 94 84 72 54 40 31 24 21 20 19 20 21 22 24 27 29 28 25 25 28 32 36
97 97 97 98 97 78 45 30 43 72 36 84 74 38 46 57 70 94 96 97 98 95 89 76 57 42 32 25 23 22 22 23 24 26 29 30 30 28 27 29 34 40 44
97 97 98 98 96 76 38 28 40 64 42 52 76 65 47 66 95 98 98 97 96 96 92 80 64 47 32 27 25 25 26 27 28 30 32 33 31 29 30 36 43 48 53

GFSGL_700_rhum_150.txt.gz
RH
65 70 60 40 32 34 37 38 37 35 30 28 23 22 19 22 31 25 22 20 23 26 31 20 9 8 8 8 15 23 35 50 32 42 30 53 89 90 98 98 96 96 75
78 78 66 41 36 39 43 39 45 34 36 36 28 23 23 33 29 26 26 29 27 20 12 9 8 7 6 5 5 6 25 42 9 5 38 14 52 99 98 97 98 99 100
89 86 58 44 41 45 66 55 37 40 55 38 31 28 35 35 31 29 33 30 22 17 10 8 8 7 6 5 4 3 8 13 3 3 9 3 9 47 87 97 97 97 98
97 84 66 51 52 83 90 52 50 60 57 42 36 42 41 36 31 33 35 28 17 11 10 10 10 10 8 6 5 4 3 4 4 3 3 3 3 7 24 62 95 97 96
99 97 88 96 96 95 85 72 75 67 63 52 52 48 39 36 35 32 28 15 11 11 11 12 12 11 10 8 6 5 5 5 4 4 4 4 4 4 3 3 4 14 88
99 95 95 97 96 96 94 90 80 81 68 52 56 44 37 35 31 20 15 13 14 12 13 13 11 11 10 9 7 6 6 5 5 5 5 5 4 4 4 4 3 3 8
100 98 97 96 97 97 98 97 96 96 70 68 53 41 36 34 19 15 13 14 13 14 14 13 12 11 10 9 8 7 7 6 6 6 6 6 5 5 5 4 4 4 4
96 97 97 98 98 98 97 97 95 86 82 64 48 36 32 21 16 15 14 14 14 16 16 14 13 12 11 9 8 8 8 8 8 7 7 6 6 5 5 5 5 4 4
97 97 98 97 97 96 96 95 93 92 81 61 47 34 20 21 16 16 15 15 16 17 16 15 13 12 11 11 10 10 10 10 9 8 8 7 7 6 6 6 5 5 5
97 97 96 97 97 96 95 94 94 92 74 59 41 30 22 33 21 16 16 16 18 18 17 16 15 14 14 14 14 14 12 12 11 10 10 9 8 8 7 6 6 5 5
97 96 97 96 97 97 96 96 99 85 68 58 35 18 18 19 18 18 17 18 19 18 18 17 17 17 18 18 18 18 17 16 15 14 14 13 12 10 9 8 8 8 8
97 96 98 97 98 96 95 97 97 79 72 56 40 20 18 19 20 19 18 19 20 20 20 20 20 21 22 22 23 22 21 20 20 18 17 16 14 14 13 12 12 11 11
96 97 96 96 96 95 97 97 96 88 74 62 39 19 20 21 22 19 19 21 22 21 22 22 23 25 25 26 27 26 25 24 22 21 19 18 17 16 15 14 13 12 11
97 95 96 96 96 96 96 96 98 90 77 67 36 19 20 23 21 19 21 23 24 23 24 25 26 27 29 31 30 29 28 27 25 23 22 21 19 18 16 14 13 12 12
96 97 96 96 96 95 97 97 100 91 78 62 30 19 22 23 20 20 23 24 25 25 27 27 28 30 32 32 32 32 30 28 26 25 22 20 18 17 15 13 12 10 10
97 96 96 96 93 90 93 100 100 98 83 48 23 20 24 24 22 22 24 26 27 28 28 30 30 34 35 35 35 34 32 30 27 25 23 20 17 15 14 12 11 9 9
98 96 98 98 96 96 98 100 97 95 91 44 22 23 26 25 24 24 26 28 30 31 32 31 34 37 38 38 37 36 34 32 28 24 21 18 16 14 12 11 9 8 8
96 96 97 97 98 96 91 96 97 96 89 85 35 26 28 25 26 26 28 31 32 33 33 35 38 39 38 38 38 37 34 30 26 23 20 17 15 13 11 9 8 7 7
99 98 98 97 96 94 94 93 95 96 96 92 29 53 28 31 31 26 29 32 34 35 36 39 40 41 41 41 40 37 33 30 27 24 19 16 14 12 10 9 8 7 7
100 99 97 95 96 96 95 96 96 96 97 96 79 96 73 33 28 30 33 35 36 38 40 42 44 44 44 44 40 36 32 30 26 22 19 15 13 11 10 9 9 9 9
98 97 97 98 97 96 97 97 97 98 97 88 95 51 33 30 29 31 33 35 38 40 43 46 48 51 51 47 41 35 31 29 26 21 17 14 13 12 11 11 11 11 12
96 96 96 97 97 97 97 97 98 98 96 97 90 59 59 42 33 34 36 39 41 44 50 64 62 63 60 51 41 33 31 28 23 20 17 15 14 14 13 14 14 15 15
96 97 97 97 97 97 97 98 97 97 98 91 46 40 41 31 42 72 61 43 50 85 86 78 82 84 77 55 40 36 32 27 24 21 19 18 17 17 17 18 18 18 19
91 93 94 95 96 97 97 97 96 98 97 93 69 44 35 93 80 42 68 83 92 97 96 98 97 92 76 57 43 38 33 28 25 22 21 21 20 20 20 21 21 22 25
88 88 90 94 97 98 97 97 98 96 96 98 95 55 77 97 85 90 95 97 97 98 98 98 98 95 85 66 52 41 34 29 26 24 24 23 23 23 24 24 24 28 37
89 89 93 96 98 98 97 97 93 72 69 90 95 98 96 97 98 97 98 98 98 98 98 98 99 98 90 82 64 46 34 28 27 26 26 25 26 26 26 26 31 42 52